カタログに戻る

GO-32

TECHSAT 1B

運用中アマチュア無線SSO
NORAD 25397·PAYLOAD·🇮🇱 Israel

打ち上げ Jul 10, 1998 から Baikonur Cosmodrome

Loading…

次のパス (今後24時間)

TLE

最新Source: Space-Track

元期: Sep 14, 2026, 09:54 UTC

1 25397U 98043D   26257.41299807  .00000025  00000-0  30886-4 0  9998
2 25397  99.0152 252.4556 0001057  13.7115 346.4091 14.24442711464038

AllMySatでGO-32をリアルタイム追跡

Download on the App Store